User: anonymous   Login
Location: Unspecified
(0.0000°N, 0.0000°E)
Time: 14:12:17
(UTC+02:00)
Language:

Timation 2 Rocket - Orbit

View from above orbital plane
View from above orbital plane
View from above satellite
View from above satellite

Ground track
Ground track

The orbit data is extracted from the following two-line orbital elements,

1  4159U 69082AB  17116.84605293 -.00000022 +00000-0 +28773-4 0  9993
2  4159 069.9620 262.1992 0114880 154.9634 205.7092 13.72372903380595
Epoch (UTC): 26 April 2017 20:18:18
Eccentricity: 0.0114880
inclination: 69.9620°
perigee height: 906 km
apogee height: 1076 km
right ascension of ascending node: 262.1992°
argument of perigee: 154.9634°
revolutions per day: 13.72372903
mean anomaly at epoch: 205.7092°
orbit number at epoch: 38059

The dashed part of the orbit path shows where the satellite is in the earth's shadow,  

DLR